708  
ASUS46 KPDT 231225  
RWRPDT  
PENDLETON REGIONAL WEATHER ROUNDUP  
NATIONAL WEATHER SERVICE PENDLETON OREGON  
400 AM PST MON JAN 23 2017  
 
NOTE: FAIR INDICATES FEW OR NO CLOUDS BELOW 12,000 FEET WITH NO  
SIGNIFICANT WEATHER AND/OR S TO VISIBILITY
.  
 
# INDICATES UNOFFICIAL STATION AND DATA  
 
WAZ520-231310-  
EAST SLOPES OF WASHINGTON CASCADES  
 
CITY SKY/WX TMP DP RH WIND PRES REMARKS
 
#CLE ELUM HS N/A 28 26 92 CALM 29.66R  
#CLE ELUM LAKE N/A 24 23 96 CALM 29.72R  
#GLENWOOD N/A 28 27 96 CALM 29.70S  
#MANASTASH CYN N/A 20 15 81 CALM 29.65S  
#NELSON 3SW N/A 24 23 96 CALM 29.94R  
#NILE N/A 24 22 92 CALM 28.99S  
#RONALD 2NW N/A 23 N/A N/A CALM 29.53R  
#TEANAWAY 4NE N/A 26 26 100 CALM N/A  
#TROUT LAKE 1NE N/A 31 30 96 CALM 29.69S  
#TROUT LAKE 1E N/A 30 29 96 CALM 29.65S  

 
 
WAZ521-231310-  
SIMCOE HIGHLANDS  
 
CITY SKY/WX TMP DP RH WIND PRES REMARKS
 
#BICKLETON HS N/A 30 25 81 N6 29.26R  
#CENTERVILLE 1SWN/A 21 19 92 CALM 29.70R  
#GOLDENDALE 1NE N/A 24 21 88 CALM N/A  
#GOLDENDALE 4W N/A 24 13 62 CALM 29.69R  
#LYLE 6NE N/A 30 29 96 CALM 29.68R  
#PITT 4SE N/A 27 26 96 CALM 29.74R  

 
 
WAZ026-231310-  
KITTITAS VALLEY  
 
CITY SKY/WX TMP DP RH WIND PRES REMARKS
 
ELLENSBURG AP CLOUDY 27 22 81 N8 29.68R  
6HR MIN TEMP: 27; 6HR MAX TEMP: 34;  
 
#ELLENSBURG CWU N/A 29 28 96 CALM 29.68S  
#ELLENSBURG 3NE N/A 25 24 96 CALM 27.78S  
#ELLENSBURG 1E N/A 29 N/A N/A CALM N/A  
#KITTITAS 4N N/A 25 22 88 CALM 29.71S  
#KITTITAS 3S N/A 30 29 96 E2 29.73R  
#THORP 6N N/A 22 21 96 N2 29.76R  

 
 
WAZ027-231310-  
YAKIMA VALLEY  
 
CITY SKY/WX TMP DP RH WIND PRES REMARKS
 
SUNNYSIDE AP CLOUDY 30 30 100 CALM 29.72R FOG  
YAKIMA AIRPORT CLOUDY 30 27 88 W10 29.70S  
6HR MIN TEMP: 30; 6HR MAX TEMP: 34;  
 
YAKIMA-VAGABOND MOCLDY 29 26 88 N3 29.67S  
6HR MIN TEMP: 29; 6HR MAX TEMP: 31;  
 
#DONALD 2NE N/A 30 26 85 SW1 28.57R  
#MABTON N/A 32 32 100 CALM 29.71R  
#NACHES 2SW N/A 27 26 96 CALM 29.65S  
#TERRACE HTS N/A 28 27 96 CALM 29.71S  
#TOPPENISH N/A 31 30 96 CALM 29.66R  
#WEST VALLEY N/A 27 26 96 CALM 29.74R  
#W YAKIMA N/A 28 27 96 CALM 29.76R  
#WHITE SWAN 5E N/A 31 30 96 CALM 29.75R  
#WILEY CITY 3W N/A 22 18 84 CALM 29.66R  

 
 
WAZ028-231310-  
LOWER COLUMBIA BASIN...WASHINGTON  
 
CITY SKY/WX TMP DP RH WIND PRES REMARKS
 
PASCO FRZFOG 30 30 100 CALM 29.74S VSB 1/2  
PROSSER AWOS N/A 32 32 100 W6 29.75R  
RICHLAND AWOS CLOUDY 32 32 100 NW7 29.74S FOG  
#BENTON CITY N/A 29 28 96 CALM 29.65F  
#CONNELL 5N N/A 30 29 96 N7 29.73S  
#CONNELL 5NW N/A 30 29 96 NE5 29.69S  
#ELTOPIA 6NW N/A 30 30 100 CALM 28.68S  
#KAHLOTUS N/A 29 28 96 S7 29.72S  
#KENNEWICK 3S N/A 29 28 96 CALM 29.75S  
#PATERSON N/A 31 29 92 E5 29.70S  
#SAGEMOOR 2W N/A 29 27 92 N3 29.59S  
#TOUCHET 2S N/A 29 28 96 CALM 29.72S  
#WEST PASCO N/A 31 29 92 CALM 29.70R  

 
 
WAZ029-231310-  
FOOTHILLS OF THE BLUES...WASHINGTON  
 
CITY SKY/WX TMP DP RH WIND PRES REMARKS
 
WALLA WALLA AP FRZFOG 26 25 96 S8 29.67S VSB<1/4  
6HR MIN TEMP: 26; 6HR MAX TEMP: 36;  
 
#CLYDE 6NW N/A 28 27 96 CALM 29.71S  
#DAYTON SCHOOL N/A 26 19 74 CALM 29.70F  
#LOWDEN 2SE N/A 23 22 96 CALM 29.69R  
#PLEASANT VIEW 1N/A 27 26 96 CALM 29.77S  
#PRESCOTT N/A 27 25 92 CALM 29.70S  
#WHITMAN COLLEGEN/A 27 25 92 CALM 29.75F  
#WAITSBURG 5S N/A 31 25 78 E3 29.79S  
#WAITSBURG 8N N/A 26 N/A N/A CALM 29.53S  
#WALLA WALLA 5E N/A 28 26 92 CALM N/A  
#WHITMAN MISSIONN/A 24 22 92 CALM 29.75R  

 
 
WAZ030-231310-  
BLUE MOUNTAINS...WASHINGTON  
 
CITY SKY/WX TMP DP RH WIND PRES REMARKS
 
#DIXIE 5SE N/A 34 18 51 E1 29.54R  

 
 
ORZ009-041-WAZ024-231310-  
COLUMBIA RIVER GORGE  
 
CITY SKY/WX TMP DP RH WIND PRES REMARKS
 
HOOD RIVER AP FOG 34 32 92 CALM 29.70R VSB 1/2  
THE DALLES AP FOG 33 32 96 CALM 29.72R VSB 1/4  
6HR MIN TEMP: 32; 6HR MAX TEMP: 33;  
 
#ARLINGTON AIRPON/A 30 29 96 CALM 29.75R  
#ARLINGTON HS N/A 33 31 92 CALM 29.65R  
#CELILO DOT N/A 33 31 92 S6 N/A  
#LYLE N/A 34 33 96 CALM 29.74R  
#MOSIER 1S N/A 34 31 89 CALM 29.67S  
#MURDOCK N/A 33 32 96 E1 29.70R  
#RUFUS DOT N/A 31 31 100 SE3 N/A  
#SMITHVILLE N/A 33 32 96 N1 29.68R  
 

 
 
ORZ510-231310-  
NORTH CENTRAL OREGON  
 
CITY SKY/WX TMP DP RH WIND PRES REMARKS
 
#ANTELOPE N/A 29 25 85 CALM 29.53R  
#CHENOWITH 1W N/A 30 30 100 SE3 N/A  
#COW CYN RST AREN/A 31 N/A N/A SW3 N/A  
#DUFUR 9E N/A 28 27 96 CALM 29.75R  
#GRASS VALLEY 1SN/A 29 28 96 CALM 29.59R  
#KENT DOT N/A 31 27 85 N3 N/A  
#MAUPIN SCHOOL N/A 31 29 92 CALM 29.73R  
#SHANIKO 5WSW N/A 31 16 53 N5 N/A  
#SHANIKO 4NW N/A 31 22 69 S5 29.56S  
#TYGH VALLEY 2NEN/A 30 29 96 CALM 29.71R  
#WAPANITIA AIRPON/A 27 26 96 CALM 29.73R  
#WASCO DOT N/A 30 28 92 E2 N/A  
#WASCO 5NE N/A 28 26 92 CALM 29.72R  

 
 
ORZ511-231310-  
CENTRAL OREGON  
 
CITY SKY/WX TMP DP RH WIND PRES REMARKS
 
BEND AIRPORT LGT SNOW 28 27 96 CALM 29.59R  
MADRAS AIRPORT LGT SNOW 30 30 100 S3 29.64R  
PRINEVILLE AP LGT SNOW 30 28 92 S5 29.60R  
REDMOND AIRPORT LGT SNOW 30 27 88 CALM 29.60R FOG  
#ASHWOOD SCHOOL N/A 30 25 81 CALM 29.60R  
#BEND 1SW N/A 27 25 92 CALM N/A  
#BEND-AWBREY N/A 29 27 92 CALM 29.65S  
#BEND-KIM LN N/A 29 26 88 CALM 29.60R  
#CULVER N/A 30 28 92 CALM 29.60R  
#CULVER 8W N/A 29 25 85 CALM 29.65S  
#MADRAS 4S N/A 31 22 69 CALM 29.72R  
#POWELL BUTTE N/A 29 24 81 CALM 29.59R  
#PRINEVILLE 3N N/A 30 27 88 E2 29.66R  
#WARM SPRINGS N/A 29 27 92 CALM 29.62R  
 

 
 
 
ORZ509-231310-  
EAST SLOPES OF OREGON CASCADES  
 
CITY SKY/WX TMP DP RH WIND PRES REMARKS
 
SISTERS AWOS N/A 28 25 88 CALM 29.59R  
#BLUE BOX PASS N/A 27 N/A N/A SW3 N/A  
#CAMP SHERMAN N/A 28 25 88 CALM 29.71R  
#LA PINE 4NW N/A 24 20 84 CALM 29.68R  
#LAVA BUTTE DOT N/A 25 23 92 CALM N/A  
#SISTERS ODOT N/A 28 N/A N/A CALM N/A  
#SISTERS 3N N/A 28 22 78 CALM 29.64R  
#SUNRIVER N/A 26 25 96 CALM 29.67R  
#TUMALO 3W N/A 28 25 88 CALM 29.52R  
#WANOGA BUTTE D N/A 21 20 96 CALM N/A  
 

 
 
ORZ044-231310-  
LOWER COLUMBIA BASIN...OREGON  
 
CITY SKY/WX TMP DP RH WIND PRES REMARKS
 
HERMISTON FOG 24 24 100 CALM 29.68R VSB 3/4  
6HR MIN TEMP: 20; 6HR MAX TEMP: 27;  
 
#BOARDMAN SCHOOLN/A 30 29 96 N5 29.71S  
#BOARDMAN 8SW N/A 28 27 96 NW2 29.74R  
#ECHO 8SW N/A 27 27 100 CALM 29.71R  
#I-84 EX 198 DOTN/A 26 25 96 N3 N/A  
#UMATILLA N/A 24 23 96 CALM 29.66R  

 
 
ORZ507-231310-  
NORTHERN FOOTHILLS OF THE BLUES  
 
CITY SKY/WX TMP DP RH WIND PRES REMARKS
 
PENDLETON AIRPT MOCLDY 32 27 82 E7 29.63R  
6HR MIN TEMP: 30; 6HR MAX TEMP: 33;  
 
#ADAMS 3WNW N/A 30 26 85 NE5 29.66F  
#ATHENA N/A 27 24 88 NE5 29.70S  
#CAYUSE N/A 37 27 67 E14 29.65R WCI 28  
#HELIX SCHOOL N/A 30 26 85 N7 29.69R  
#HELIX 3N N/A 31 27 85 N10 29.62S  
#HOLDMAN 5SE N/A 30 27 88 S1 29.65R  
#HOLDMAN 6E N/A 27 26 96 N12 29.48S WCI 16  
#M-F GROVE ELEM N/A 28 25 88 CALM 29.66S  
#PENDLETON DNTN N/A 24 18 77 CALM 29.65S  
#PDT AQUATIC CTRN/A 26 24 92 W3 29.66S  
#PDT SUNRIDGE N/A 26 24 92 CALM 29.66S  
#PENDLETON 7NW N/A 29 24 81 CALM 32.00S  
#PILOT ROCK N/A 28 22 78 SW5 29.65S  
#TUTUILLA N/A 27 23 85 CALM 29.67S  
#UMAPINE 2E N/A 29 28 96 CALM 29.67S  
#WESTON SCHOOL N/A 29 23 78 CALM 29.60R  
 

 
 
ORZ508-231310-  
SOUTHERN FOOTHILLS OF THE BLUES  
 
CITY SKY/WX TMP DP RH WIND PRES REMARKS
 
#AJAX N/A 28 21 75 CALM 27.42R  
#CONDON SCHOOL N/A 32 25 75 N2 29.59R  
#CONDON 5W N/A 32 20 61 SE1 29.56R  
#FOSSIL SCHOOL N/A 32 25 75 W1 29.57S  
#HEPPNER EOC N/A 26 23 88 W1 29.61R  
#HEPPNER 4NE N/A 29 20 69 CALM 29.65S  
#LEXINGTON 2SE N/A 30 27 88 CALM 29.61R  
#MIKKALO N/A 28 26 92 E1 29.77R  
#OLEX 4N N/A 28 27 96 CALM 29.67R  
#RUGGS 5NE N/A 33 20 58 W1 29.75S  
#RUGGS 2SW N/A 33 23 66 SW2 29.69R  
 

 
 
ORZ502-503-231310-  
BLUE MOUNTAINS  
 
CITY SKY/WX TMP DP RH WIND PRES REMARKS
 
MEACHAM PTCLDY 14 9 80 CALM 29.57F  
6HR MIN TEMP: 13; 6HR MAX TEMP: 26;  
 
#BATTLE MTN DOT N/A 21 18 88 S6 N/A  
#GREENHORN 9SW N/A 14 13 96 CALM 25.82F  
#HEPPNER 15SE N/A 26 20 78 CALM 25.13S  
#LADD CYN SMT N/A 23 22 96 NE1 N/A  
#LADD CREEK ODOTN/A 22 21 96 W2 N/A  
#LONG CREEK HS N/A 23 22 96 NW5 N/A  
#N POWDER DOT N/A 22 21 96 CALM N/A  
#PIKES PEAK N/A 35 14 41 CALM 27.99S  
#TOLLGATE N/A 18 16 92 CALM 29.48S  
#TROY SCHOOL N/A 24 22 92 CALM 29.64F  
#UKIAH N/A 10 8 91 CALM 29.67S  
#WESTON 4E N/A 29 25 85 E10 29.65S  

 
 
ORZ505-231310-  
JOHN DAY BASIN  
 
CITY SKY/WX TMP DP RH WIND PRES REMARKS
 
JOHN DAY PTCLDY 25 19 78 CALM 29.59R  
#ANTELOPE 9ESE N/A 30 27 88 CALM N/A  
#DAYVILLE SCHOOLN/A 26 19 74 CALM 29.62R  
#MITCHELL N/A 33 27 78 E1 29.78R  
#MITCHELL 8NW N/A 31 21 66 CALM 29.48R  
#MONUMENT HS N/A 22 18 84 CALM 29.62S  
#MT. VERNON 5SE N/A 25 19 78 CALM 29.52R  
#SPRAY SCHOOL N/A 27 N/A N/A CALM N/A  

 
 
ORZ506-231310-  
OCHOCO AND JOHN DAY HIGHLANDS  
 
CITY SKY/WX TMP DP RH WIND PRES REMARKS
 
#HORSE RIDGE DO N/A 26 23 88 SE6 N/A  
#KEYES SMT DOT N/A 28 21 75 CALM N/A  
#PAULINA SCHOOL N/A 23 18 81 CALM N/A  
#PINE MTN OBS N/A 21 20 96 SE2 N/A  
#PRAIRIE CITY N/A 17 8 67 CALM 29.74F  
#SENECA N/A 3 N/A N/A CALM N/A  
#SENECA 9NW N/A 5 3 91 CALM 29.76R  

 
 
ORZ049-231310-  
GRANDE RONDE VALLEY  
 
CITY SKY/WX TMP DP RH WIND PRES REMARKS
 
LA GRANDE CLOUDY 27 23 85 NW7 29.63S  
#COVE N/A 21 19 92 CALM 29.69F  
#COVE 6NW N/A 24 21 88 CALM 29.73S  
#ELGIN 3N N/A 24 19 81 CALM 29.64F  
#ELGIN 1E N/A 25 21 84 CALM N/A  
#IMBLER SCHOOL N/A 24 22 92 N3 29.64S  
#ISLAND CITY 4N N/A 35 34 96 CALM 29.65S  
#LADD CYN DOT N/A 26 24 92 NW3 N/A  
#UNION 1S N/A 27 24 88 CALM 29.72S  

 
 
ORZ050-231310-  
WALLOWA COUNTY  
 
CITY SKY/WX TMP DP RH WIND PRES REMARKS
 
JOSEPH AIRPORT FRZFOG 18 16 92 CALM 29.61F VSB 1/4  
#IMNAHA SCHOOL N/A 27 24 88 CALM 29.70S  
#JOSEPH 3N N/A 19 13 77 CALM 29.68S  
#JOSEPH 3W N/A 16 11 80 CALM 29.47F  
#LOSTINE N/A 19 17 92 CALM 29.62R  
#LOSTINE 3SE N/A 19 18 96 S1 29.67F  
#MT HOWARD 8000 N/A 19 -12 24 CALM 29.41F  
#PROMISE 1S N/A 22 20 92 CALM 29.85R  
#WALLOWA SCHOOL N/A 18 17 96 CALM 29.66S  
 

 
 
CLICK HERE TO GO TO PREVIOUS BULLETINS.

The Nexlab OR Page
The Nexlab WA Page Main Text Page